This demonstration page uses our WeatherBlox Daily Observations layout. Learn more.

Left ArrowRight Arrow

31.31129, -92.44514

Hourly Observations for December 17, 2020

Temp ( °F °C ) Dew Point ( °F °C ) Humidity (%) Winds ( mph kmh ) Pressure ( in mb ) Visibility ( mi km ) Precip ( " mm )
12:53 am 00:53 Cloudy with Mist and Fog 38 3.3 31 -0.6 76 76 NW 8 13 30.22 1024 10 16 0.00 0.00
1:53 am 01:53 Cloudy with Mist and Fog 38 3.3 29 -1.7 70 70 NNW 10 17 30.22 1023 10 16 0.00 0.00
2:26 am 02:26 Cloudy with Mist and Fog 37 2.8 30 -1.1 76 76 NNW 6 9 30.21 1023 10 16 0.00 0.00
2:53 am 02:53 Cloudy with Mist and Fog 37 2.8 30 -1.1 76 76 NNW 3 6 30.23 1024 10 16 0.00 0.00
3:53 am 03:53 Clear with Mist and Fog 34 1.1 30 -1.1 85 85 WNW 5 7 30.24 1024 10 16 0.00 0.00
4:53 am 04:53 Clear with Mist and Fog 33 0.6 30 -1.1 89 89 WNW 5 7 30.25 1024 10 16 0.00 0.00
5:53 am 05:53 Clear with Mist and Fog 33 0.6 29 -1.7 85 85 Calm 30.26 1025 10 16 0.00 0.00
6:53 am 06:53 Clear with Mist and Fog 32 0 29 -1.7 88 88 Calm 30.28 1026 10 16 0.00 0.00
7:53 am 07:53 Sunny with Mist and Fog 33 0.6 31 -0.6 92 92 Calm 30.32 1027 9 14 0.00 0.00
8:53 am 08:53 Sunny with Mist and Fog 37 2.8 32 0 82 82 WNW 3 6 30.34 1027 10 16 0.00 0.00
9:53 am 09:53 Sunny 41 5 31 -0.6 67 67 N 5 7 30.35 1028 10 16 0.00 0.00
10:53 am 10:53 Sunny 43 6.1 32 0 65 65 W 5 7 30.35 1028 10 16 0.00 0.00
11:53 am 11:53 Sunny 45 7.2 33 0.6 63 63 WNW 7 11 30.32 1027 10 16 0.00 0.00
12:53 pm 12:53 Sunny 47 8.3 34 1.1 61 61 W 7 11 30.30 1026 10 16 0.00 0.00
1:53 pm 13:53 Sunny 49 9.4 33 0.6 55 55 undefined N/A 30.29 1026 10 16 0.00 0.00
2:53 pm 14:53 Sunny 50 10 33 0.6 52 52 W 7 11 30.28 1025 10 16 0.00 0.00
3:53 pm 15:53 Sunny 50 10 34 1.1 54 54 WNW 7 11 30.28 1026 10 16 0.00 0.00
4:53 pm 16:53 Sunny 49 9.4 33 0.6 55 55 NNW 3 6 30.29 1026 10 16 0.00 0.00
5:53 pm 17:53 Clear 45 7.2 38 3.3 77 77 Calm 30.30 1026 10 16 0.00 0.00
6:53 pm 18:53 Clear 40 4.4 36 2.2 86 86 Calm 30.31 1026 10 16 0.00 0.00
7:53 pm 19:53 Clear 39 3.9 34 1.1 82 82 Calm 30.32 1027 10 16 0.00 0.00
8:53 pm 20:53 Clear 38 3.3 34 1.1 86 86 Calm 30.33 1027 10 16 0.00 0.00
9:53 pm 21:53 Clear 37 2.8 35 1.7 93 93 Calm 30.33 1027 10 16 0.00 0.00
10:53 pm 22:53 Clear 36 2.2 34 1.1 93 93 Calm 30.35 1028 9 14 0.00 0.00
11:53 pm 23:53 Clear 34 1.1 33 0.6 97 97 Calm 30.35 1028 10 16 0.00 0.00

Powered by AerisWeather